TimeEDT,TemperatureF,Dew PointF,Humidity,Sea Level PressureIn,VisibilityMPH,Wind Direction,Wind SpeedMPH,Gust SpeedMPH,PrecipitationIn,Events,Conditions,WindDirDegrees,DateUTC
12:54 AM,45.0,41.0,86,30.28,6.0,Calm,Calm,-,N/A,,Clear,0,2013-03-11 04:54:00
1:54 AM,44.1,39.9,85,30.28,7.0,ENE,4.6,-,N/A,,Clear,70,2013-03-11 05:54:00
2:28 AM,41.0,39.2,93,30.27,1.8,Calm,Calm,-,N/A,,Clear,0,2013-03-11 06:28:00
2:45 AM,44.6,41.0,87,30.26,3.0,Calm,Calm,-,N/A,,Clear,0,2013-03-11 06:45:00
2:54 AM,45.0,39.9,82,30.27,3.0,Calm,Calm,-,N/A,,Haze,0,2013-03-11 06:54:00
3:14 AM,41.0,39.2,93,30.26,1.5,Calm,Calm,-,N/A,,Clear,0,2013-03-11 07:14:00
3:21 AM,42.8,39.2,87,30.26,0.5,Calm,Calm,-,N/A,Fog,Fog,0,2013-03-11 07:21:00
3:54 AM,41.0,37.0,86,30.25,0.2,Calm,Calm,-,N/A,Fog,Fog,0,2013-03-11 07:54:00
4:54 AM,39.0,36.0,89,30.22,1.2,Calm,Calm,-,N/A,,Mostly Cloudy,0,2013-03-11 08:54:00
5:03 AM,41.0,37.4,87,30.22,0.5,Calm,Calm,-,N/A,Fog,Fog,0,2013-03-11 09:03:00
5:14 AM,-9999,-9999,N/A,30.23,0.2,Calm,Calm,-,N/A,Fog,Light Freezing Fog,0,2013-03-11 09:14:00
5:23 AM,-9999,-9999,N/A,30.22,0.2,Calm,Calm,-,N/A,Fog,Light Freezing Fog,0,2013-03-11 09:23:00
5:54 AM,-9999,-9999,N/A,30.23,0.5,Calm,Calm,-,N/A,Fog,Light Freezing Fog,0,2013-03-11 09:54:00
6:25 AM,-9999,-9999,N/A,30.23,0.2,Calm,Calm,-,N/A,Fog,Light Freezing Fog,0,2013-03-11 10:25:00
6:40 AM,-9999,-9999,N/A,30.23,1.0,Calm,Calm,-,N/A,,Scattered Clouds,0,2013-03-11 10:40:00
6:45 AM,-9999,-9999,N/A,30.23,3.0,Calm,Calm,-,N/A,,Scattered Clouds,0,2013-03-11 10:45:00
6:47 AM,-9999,-9999,N/A,30.23,1.8,Calm,Calm,-,N/A,,Scattered Clouds,0,2013-03-11 10:47:00
6:54 AM,-9999,-9999,N/A,30.23,0.5,Calm,Calm,-,N/A,Fog,Light Freezing Fog,0,2013-03-11 10:54:00
7:03 AM,-9999,-9999,N/A,30.23,2.0,Calm,Calm,-,N/A,,Partly Cloudy,0,2013-03-11 11:03:00
7:12 AM,-9999,-9999,N/A,30.22,1.0,East,3.5,-,N/A,,Clear,100,2013-03-11 11:12:00
7:31 AM,-9999,-9999,N/A,30.22,3.0,ESE,3.5,-,N/A,,Clear,110,2013-03-11 11:31:00
7:54 AM,-9999,-9999,N/A,30.21,6.0,ESE,5.8,-,N/A,,Haze,110,2013-03-11 11:54:00
8:54 AM,-9999,-9999,N/A,30.24,10.0,ESE,3.5,-,N/A,,Clear,120,2013-03-11 12:54:00
9:54 AM,-9999,-9999,N/A,30.23,-9999.0,ESE,8.1,-,N/A,,Clear,110,2013-03-11 13:54:00
10:54 AM,-9999,-9999,N/A,30.22,10.0,ESE,9.2,-,N/A,,Clear,120,2013-03-11 14:54:00
11:54 AM,-9999,-9999,N/A,30.19,10.0,SE,11.5,-,N/A,,Clear,130,2013-03-11 15:54:00
12:54 PM,64.0,51.1,63,30.17,10.0,ESE,13.8,-,N/A,,Clear,120,2013-03-11 16:54:00
1:54 PM,64.0,50.0,60,30.15,10.0,ESE,17.3,-,N/A,,Clear,120,2013-03-11 17:54:00
2:54 PM,64.9,50.0,58,30.13,10.0,ESE,13.8,-,N/A,,Clear,110,2013-03-11 18:54:00
3:54 PM,61.0,50.0,67,30.12,10.0,East,11.5,-,N/A,,Scattered Clouds,100,2013-03-11 19:54:00
4:54 PM,64.9,48.0,54,30.09,10.0,SSE,16.1,24.2,N/A,,Clear,150,2013-03-11 20:54:00
5:54 PM,64.0,46.9,54,30.07,10.0,SSE,17.3,26.5,N/A,,Clear,150,2013-03-11 21:54:00
7:54 PM,57.9,48.0,70,30.09,10.0,ESE,8.1,-,N/A,,Overcast,120,2013-03-11 23:54:00
8:54 PM,57.0,48.0,72,30.07,10.0,SE,6.9,-,N/A,,Partly Cloudy,140,2013-03-12 00:54:00
9:04 PM,57.2,48.2,72,30.07,10.0,SE,8.1,41.4,N/A,,Clear,140,2013-03-12 01:04:00
9:54 PM,57.0,48.9,74,30.05,10.0,SSE,10.4,19.6,N/A,,Clear,160,2013-03-12 01:54:00
10:54 PM,57.9,48.9,72,30.05,10.0,SSE,10.4,-,N/A,,Clear,150,2013-03-12 02:54:00
11:54 PM,57.9,50.0,75,30.04,10.0,SE,6.9,-,N/A,,Mostly Cloudy,130,2013-03-12 03:54:00